Stephenville, TX

8:57 PM CDT on May 25, 2017 (GMT -0500)
Clark Municipal

Weather History for KSEP - December, 2012

Change the Weather History Date:

Tuesday, December 18, 2012

  Actual Average Record
Temperature  
Mean Temperature 57 °F -  
Max Temperature 77 °F 56 °F 77 °F (2012)
Min Temperature 37 °F 32 °F 15 °F (1983)
Degree Days  
Heating Degree Days 8    
Growing Degree Days 7 (Base 50)    
Moisture  
Dew Point 25 °F    
Average Humidity 33    
Maximum Humidity 61    
Minimum Humidity 12    
Precipitation  
Precipitation 0.00 in - - ()
Sea Level Pressure  
Sea Level Pressure 29.84 in    
Wind  
Wind Speed 3 mph (SW)    
Max Wind Speed 18 mph    
Max Gust Speed 24 mph    
Visibility 10 miles    
Events      
Averages and records for this station are not official NWS values.
T = Trace of Precipitation, MM = Missing Value Source: NWS Daily Summary

Daily Weather History Graph

Daily Weather History Graph

Search for Another Location

Airport or City:

Trip Planner

Search our weather history database for the weather conditions in past years. The results will help you decide how hot, cold, wet, or windy it might be!

Date:

Astronomy

Dec. 18, 2012 Rise Set
Actual Time 7:28 AM CST 5:30 PM CST
Civil Twilight 7:01 AM CST 5:58 PM CST
Nautical Twilight 6:30 AM CST 6:28 PM CST
Astronomical Twilight 6:00 AM CST 6:58 PM CST
Moon 11:27 AM CST (12/18) 11:37 PM CST (12/18)
Length of Visible Light 10h 56m
Length of Day
10h 02m
Waxing Crescent, 35% of the Moon is Illuminated
Dec 18
Waxing Crescent
Dec 19
First Quarter
Dec 28
Full
Jan 4
Last Quarter
Jan 11
New

Hourly Weather History & Observations

Time (CST) Temp. Windchill Dew Point Humidity Pressure Visibility Wind Dir Wind Speed Gust Speed Precip Events Conditions
12:15 AM 41.0 °F - 23.0 °F 49% 29.88 in 10.0 mi Calm Calm - N/A   Clear
12:35 AM 41.0 °F - 23.0 °F 49% 29.88 in 10.0 mi Calm Calm - N/A   Clear
12:55 AM 42.8 °F - 23.0 °F 46% 29.87 in 10.0 mi Calm Calm - N/A   Clear
1:15 AM 42.8 °F - 23.0 °F 46% 29.87 in 10.0 mi Calm Calm - N/A   Clear
1:35 AM 41.0 °F - 24.8 °F 53% 29.86 in 10.0 mi Calm Calm - N/A   Clear
1:55 AM 41.0 °F - 24.8 °F 53% 29.86 in 10.0 mi Calm Calm - N/A   Clear
2:15 AM 41.0 °F - 23.0 °F 49% 29.85 in 10.0 mi Calm Calm - N/A   Clear
2:35 AM 37.4 °F - 24.8 °F 60% 29.85 in 10.0 mi Calm Calm - N/A   Clear
2:55 AM 41.0 °F - 24.8 °F 53% 29.85 in 10.0 mi Calm Calm - N/A   Clear
3:15 AM 41.0 °F - 26.6 °F 57% 29.85 in 10.0 mi Calm Calm - N/A   Clear
3:35 AM 42.8 °F - 26.6 °F 53% 29.85 in 10.0 mi Calm Calm - N/A   Clear
3:55 AM 39.2 °F - 26.6 °F 61% 29.85 in 10.0 mi Calm Calm - N/A   Clear
4:15 AM 39.2 °F - 26.6 °F 61% 29.85 in 10.0 mi Calm Calm - N/A   Clear
4:35 AM 41.0 °F - 26.6 °F 57% 29.85 in 10.0 mi Calm Calm - N/A   Clear
4:55 AM 39.2 °F - 26.6 °F 61% 29.85 in 10.0 mi Calm Calm - N/A   Clear
5:15 AM 41.0 °F - 26.6 °F 57% 29.85 in 10.0 mi Calm Calm - N/A   Clear
5:35 AM 41.0 °F - 26.6 °F 57% 29.85 in 10.0 mi Calm Calm - N/A   Clear
5:55 AM 44.6 °F - 26.6 °F 49% 29.85 in 10.0 mi Calm Calm - N/A   Clear
6:15 AM 44.6 °F - 26.6 °F 49% 29.85 in 10.0 mi Calm Calm - N/A   Clear
6:35 AM 46.4 °F - 26.6 °F 46% 29.86 in 10.0 mi Calm Calm - N/A   Clear
6:55 AM 44.6 °F - 26.6 °F 49% 29.87 in 10.0 mi Calm Calm - N/A   Clear
7:15 AM 46.4 °F - 26.6 °F 46% 29.86 in 10.0 mi Calm Calm - N/A   Clear
7:35 AM 46.4 °F - 26.6 °F 46% 29.87 in 10.0 mi Calm Calm - N/A   Clear
7:55 AM 46.4 °F 45.2 °F 26.6 °F 46% 29.87 in 10.0 mi South 3.5 mph - N/A   Clear
8:15 AM 46.4 °F - 26.6 °F 46% 29.88 in 10.0 mi Calm Calm - N/A   Clear
8:35 AM 51.8 °F - 28.4 °F 41% 29.88 in 10.0 mi Calm Calm - N/A   Clear
8:55 AM 53.6 °F - 28.4 °F 38% 29.88 in 10.0 mi SW 5.8 mph - N/A   Clear
9:15 AM 59.0 °F - 28.4 °F 31% 29.89 in 10.0 mi WSW 8.1 mph - N/A   Clear
9:35 AM 60.8 °F - 28.4 °F 29% 29.90 in 10.0 mi WSW 15.0 mph - N/A   Clear
9:55 AM 60.8 °F - 26.6 °F 27% 29.91 in 10.0 mi WSW 11.5 mph 17.3 mph N/A   Clear
10:15 AM 62.6 °F - 26.6 °F 26% 29.91 in 10.0 mi WSW 11.5 mph - N/A   Clear
10:35 AM 64.4 °F - 26.6 °F 24% 29.91 in 10.0 mi WSW 11.5 mph 18.4 mph N/A   Clear
10:55 AM 68.0 °F - 26.6 °F 21% 29.91 in 10.0 mi WSW 11.5 mph 16.1 mph N/A   Clear
11:15 AM 68.0 °F - 26.6 °F 21% 29.90 in 10.0 mi West 9.2 mph - N/A   Clear
11:35 AM 69.8 °F - 26.6 °F 20% 29.90 in 10.0 mi WSW 11.5 mph - N/A   Clear
11:55 AM 71.6 °F - 24.8 °F 17% 29.89 in 10.0 mi WSW 12.7 mph 16.1 mph N/A   Clear
12:15 PM 71.6 °F - 23.0 °F 16% 29.88 in 10.0 mi WSW 13.8 mph 19.6 mph N/A   Clear
12:35 PM 73.4 °F - 23.0 °F 15% 29.87 in 10.0 mi WSW 13.8 mph 21.9 mph N/A   Clear
12:55 PM 73.4 °F - 21.2 °F 14% 29.86 in 10.0 mi SW 18.4 mph 24.2 mph N/A   Clear
1:15 PM 75.2 °F - 23.0 °F 14% 29.85 in 10.0 mi SSW 11.5 mph 19.6 mph N/A   Clear
1:35 PM 77.0 °F - 23.0 °F 13% 29.84 in 10.0 mi SW 8.1 mph 18.4 mph N/A   Clear
1:55 PM 77.0 °F - 23.0 °F 13% 29.83 in 10.0 mi SW 13.8 mph 19.6 mph N/A   Clear
2:15 PM 77.0 °F - 21.2 °F 12% 29.82 in 10.0 mi SW 12.7 mph 16.1 mph N/A   Clear
2:35 PM 77.0 °F - 21.2 °F 12% 29.82 in 10.0 mi SW 12.7 mph - N/A   Clear
2:55 PM 77.0 °F - 23.0 °F 13% 29.82 in 10.0 mi SW 11.5 mph 16.1 mph N/A   Clear
3:15 PM 77.0 °F - 23.0 °F 13% 29.82 in 10.0 mi WSW 12.7 mph 16.1 mph N/A   Clear
3:35 PM 77.0 °F - 23.0 °F 13% 29.81 in 10.0 mi SW 8.1 mph - N/A   Clear
3:55 PM 77.0 °F - 23.0 °F 13% 29.81 in 10.0 mi SSW 9.2 mph - N/A   Clear
4:15 PM 77.0 °F - 21.2 °F 12% 29.80 in 10.0 mi SW 6.9 mph - N/A   Clear
4:35 PM 77.0 °F - 21.2 °F 12% 29.80 in 10.0 mi SW 6.9 mph - N/A   Clear
4:55 PM 75.2 °F - 21.2 °F 13% 29.80 in 10.0 mi SW 3.5 mph - N/A   Clear
5:15 PM 73.4 °F - 21.2 °F 14% 29.79 in 10.0 mi Calm Calm - N/A   Clear
5:35 PM 71.6 °F - 21.2 °F 15% 29.79 in 10.0 mi Calm Calm - N/A   Clear
5:55 PM 69.8 °F - 23.0 °F 17% 29.80 in 10.0 mi Calm Calm - N/A   Clear
6:15 PM 62.6 °F - 23.0 °F 22% 29.80 in 10.0 mi Calm Calm - N/A   Clear
6:35 PM 64.4 °F - 23.0 °F 21% 29.80 in 10.0 mi East 3.5 mph - N/A   Clear
6:55 PM 59.0 °F - 24.8 °F 27% 29.80 in 10.0 mi Calm Calm - N/A   Clear
7:15 PM 62.6 °F - 23.0 °F 22% 29.80 in 10.0 mi Calm Calm - N/A   Clear
7:35 PM 60.8 °F - 24.8 °F 25% 29.80 in 10.0 mi Calm Calm - N/A   Clear
7:55 PM 55.4 °F - 26.6 °F 33% 29.80 in 10.0 mi Calm Calm - N/A   Clear
8:15 PM 55.4 °F - 26.6 °F 33% 29.81 in 10.0 mi Calm Calm - N/A   Clear
8:35 PM 59.0 °F - 26.6 °F 29% 29.81 in 10.0 mi SSE 5.8 mph - N/A   Clear
8:55 PM 59.0 °F - 26.6 °F 29% 29.81 in 10.0 mi SSE 5.8 mph - N/A   Clear
9:15 PM 59.0 °F - 26.6 °F 29% 29.81 in 10.0 mi SSE 4.6 mph - N/A   Clear
9:35 PM 59.0 °F - 28.4 °F 31% 29.81 in 10.0 mi SSE 3.5 mph - N/A   Clear
9:55 PM 59.0 °F - 28.4 °F 31% 29.80 in 10.0 mi Calm Calm - N/A   Clear
10:15 PM 57.2 °F - 28.4 °F 33% 29.80 in 10.0 mi Calm Calm - N/A   Clear
10:35 PM 55.4 °F - 28.4 °F 36% 29.80 in 10.0 mi South 4.6 mph - N/A   Clear
10:55 PM 53.6 °F - 28.4 °F 38% 29.81 in 10.0 mi South 4.6 mph - N/A   Clear
11:15 PM 53.6 °F - 30.2 °F 41% 29.81 in 10.0 mi South 3.5 mph - N/A   Clear
11:35 PM 53.6 °F - 32.0 °F 44% 29.82 in 10.0 mi South 3.5 mph - N/A   Clear
11:55 PM 53.6 °F - 33.8 °F 47% 29.82 in 10.0 mi South 4.6 mph - N/A   Clear